FW5282 Weather Reports


Display with metric or nautical units.
time (UTC)temp
F
wind
direction
speed
MPH
gust
MPH
rain 1hr
in
rain 24hr
in
rain mn
in
humidity
%
barometer
mb
20260502164031 74 303 7.0 13.0 0.00 0.00 0.00 57 1012.7
20260502163541 74 342 8.0 16.0 0.00 0.00 0.00 57 1012.6
20260502163044 74 294 5.0 16.0 0.00 0.00 0.00 55 1012.7
20260502162535 75 309 7.0 16.0 0.00 0.00 0.00 55 1012.8
20260502162038 75 336 7.0 14.0 0.00 0.00 0.00 53 1012.7
20260502161538 76 306 7.0 15.0 0.00 0.00 0.00 53 1012.8
20260502161037 77 279 8.0 15.0 0.00 0.00 0.00 52 1012.8
20260502160542 77 306 3.0 13.0 0.00 0.00 0.00 49 1012.8
20260502152041 78 275 5.0 9.0 0.00 0.00 0.00 43 1013.1
20260502151556 78 282 6.0 10.0 0.00 0.00 0.00 42 1013.0
20260502151033 79 273 5.0 9.0 0.00 0.00 0.00 42 1013.0
20260502150542 79 230 3.0 9.0 0.00 0.00 0.00 42 1013.1
20260502130547 78 200 6.0 14.0 0.00 0.00 0.00 42 1014.3
20260502123533 79 246 4.0 9.0 0.00 0.00 0.00 40 1014.5
20260502123057 80 239 5.0 12.0 0.00 0.00 0.00 39 1014.5
20260502122541 79 218 4.0 16.0 0.00 0.00 0.00 40 1014.4
20260502122039 79 176 5.0 17.0 0.00 0.00 0.00 40 1014.5
20260502121544 79 155 5.0 13.0 0.00 0.00 0.00 42 1014.7
20260502121042 78 157 4.0 12.0 0.00 0.00 0.00 41 1014.7
20260502120529 79 165 7.0 14.0 0.00 0.00 0.00 40 1014.8
20260502115544 78 159 5.0 10.0 0.00 0.00 0.00 44 1014.9
20260502115045 78 191 2.0 9.0 0.00 0.00 0.00 44 1014.9
20260502114032 77 156 2.0 14.0 0.00 0.00 0.00 44 1015.1
20260502113542 77 159 8.0 14.0 0.00 0.00 0.00 43 1015.2
20260502113105 77 164 5.0 11.0 0.00 0.00 0.00 44 1015.2
20260502112537 76 127 2.0 14.0 0.00 0.00 0.00 48 1015.3
20260502112038 76 153 9.0 12.0 0.00 0.00 0.00 46 1015.3
20260502111546 76 137 6.0 14.0 0.00 0.00 0.00 46 1015.3
20260502111033 76 173 6.0 14.0 0.00 0.00 0.00 47 1015.4
20260502110539 76 98 8.0 13.0 0.00 0.00 0.00 48 1015.5
20260502110044 76 161 7.0 13.0 0.00 0.00 0.00 47 1015.5
20260502105558 76 159 6.0 13.0 0.00 0.00 0.00 47 1015.5
20260502105047 75 114 8.0 11.0 0.00 0.00 0.00 46 1015.8
20260502104533 75 142 3.0 14.0 0.00 0.00 0.00 48 1015.8
20260502104046 75 186 8.0 17.0 0.00 0.00 0.00 46 1015.8
20260502103554 75 165 8.0 17.0 0.00 0.00 0.00 47 1015.8
20260502103034 75 132 9.0 13.0 0.00 0.00 0.00 46 1015.9
20260502102541 75 165 7.0 13.0 0.00 0.00 0.00 47 1015.9
20260502102047 75 126 9.0 12.0 0.00 0.00 0.00 49 1015.9
20260502101536 75 162 7.0 15.0 0.00 0.00 0.00 49 1015.9
20260502101036 76 128 9.0 15.0 0.00 0.00 0.00 50 1015.9
20260502100543 75 130 7.0 15.0 0.00 0.00 0.00 52 1016.0
20260502091042 74 138 4.0 9.0 0.00 0.00 0.00 67 1016.9
20260502090537 73 125 4.0 9.0 0.00 0.00 0.00 68 1016.9
20260502080108 65 163 3.0 6.0 0.00 0.00 0.00 82 1017.5
20260502071038 62 157 0.0 0.0 0.00 0.00 0.00 88 1017.7
20260502070543 61 167 0.0 0.0 0.00 0.00 0.00 89 1017.7
20260502070029 61 162 0.0 0.0 0.00 0.00 0.00 89 1017.6
20260502065537 61 192 0.0 0.0 0.00 0.00 0.00 89 1017.6
20260502065033 61 167 0.0 0.0 0.00 0.00 0.00 89 1017.6
20260502064540 60 167 0.0 0.0 0.00 0.00 0.00 90 1017.5
20260502064038 60 175 0.0 0.0 0.00 0.00 0.00 90 1017.6
20260502063543 60 171 0.0 0.0 0.00 0.00 0.00 90 1017.6
20260502063031 60 153 0.0 0.0 0.00 0.00 0.00 90 1017.6
20260502062537 60 154 0.0 0.0 0.00 0.00 0.00 91 1017.6
20260502062041 60 154 0.0 0.0 0.00 0.00 0.00 91 1017.6
20260502061542 60 149 0.0 0.0 0.00 0.00 0.00 91 1017.5
20260502061042 59 142 0.0 0.0 0.00 0.00 0.00 91 1017.6
20260502060544 59 140 0.0 0.0 0.00 0.00 0.00 91 1017.6
20260502060037 59 126 0.0 0.0 0.00 0.00 0.00 93 1017.7
20260502055539 58 130 0.0 0.0 0.00 0.00 0.00 94 1017.6
20260502055040 58 131 0.0 0.0 0.00 0.00 0.00 94 1017.6
20260502054541 58 153 0.0 0.0 0.00 0.00 0.00 94 1017.6
20260502054107 57 148 0.0 0.0 0.00 0.00 0.00 94 1017.7
20260502053527 57 153 0.0 0.0 0.00 0.00 0.00 94 1017.6
20260502053032 57 153 0.0 0.0 0.00 0.00 0.00 94 1017.6
20260502052536 56 155 0.0 0.0 0.00 0.00 0.00 94 1017.6
20260502052033 56 184 0.0 0.0 0.00 0.00 0.00 94 1017.6
20260502051537 56 184 0.0 0.0 0.00 0.00 0.00 94 1017.6
20260502051041 56 184 0.0 0.0 0.00 0.00 0.00 94 1017.7
20260502050547 55 184 0.0 0.0 0.00 0.00 0.00 93 1017.6
20260502050044 55 184 0.0 0.0 0.00 0.00 0.00 93 1017.7
20260502045529 55 184 0.0 0.0 0.00 0.00 0.00 93 1017.7
20260502045044 55 184 0.0 0.0 0.00 0.00 0.00 93 1017.7
20260502044529 55 184 0.0 0.0 0.00 0.00 0.00 93 1017.7
20260502044047 55 293 0.0 0.0 0.00 0.00 0.00 93 1017.8
20260502043533 55 311 0.0 0.0 0.00 0.00 0.00 93 1017.7
20260502043057 55 311 0.0 0.0 0.00 0.00 0.00 93 1017.8
20260502042542 55 312 0.0 0.0 0.00 0.00 0.00 93 1017.7
20260502042040 55 311 0.0 0.0 0.00 0.00 0.00 93 1017.8
20260502041548 55 311 0.0 0.0 0.00 0.00 0.00 93 1017.9
20260502041032 55 311 0.0 0.0 0.00 0.00 0.00 94 1017.9
20260502040539 55 311 0.0 0.0 0.00 0.00 0.00 94 1017.8
20260502040038 55 311 0.0 0.0 0.00 0.00 0.00 94 1017.9
20260502035543 55 311 0.0 0.0 0.00 0.00 0.00 93 1017.9
20260502035050 55 312 0.0 0.0 0.00 0.00 0.00 93 1018.0
20260502034532 55 312 0.0 1.0 0.00 0.00 0.00 93 1018.1
20260502034033 55 311 0.0 1.0 0.00 0.00 0.00 93 1018.1
20260502033535 55 331 1.0 1.0 0.00 0.00 0.00 93 1018.1
20260502033034 55 125 0.0 1.0 0.00 0.00 0.00 93 1018.2
20260502032533 55 139 0.0 1.0 0.00 0.00 0.00 93 1018.2
20260502032033 55 137 0.0 1.0 0.00 0.00 0.00 92 1018.2
20260502031558 55 137 0.0 0.0 0.00 0.00 0.00 92 1018.1
20260502031041 55 137 0.0 0.0 0.00 0.00 0.00 92 1018.2
20260502030543 55 137 0.0 0.0 0.00 0.00 0.00 92 1018.2
20260502030106 55 137 0.0 0.0 0.00 0.00 0.00 91 1018.2
20260502025533 55 91 0.0 0.0 0.00 0.00 0.00 91 1018.2
20260502025047 55 91 0.0 1.0 0.00 0.00 0.00 91 1018.2
20260502024602 56 91 0.0 1.0 0.00 0.00 0.00 91 1018.2
20260502024044 56 69 0.0 1.0 0.00 0.00 0.00 91 1018.1
20260502023532 56 103 0.0 1.0 0.00 0.00 0.00 92 1018.1
20260502023031 56 121 0.0 1.0 0.00 0.00 0.00 92 1018.3
20260502022541 56 121 0.0 3.0 0.00 0.00 0.00 91 1018.4
20260502022039 56 121 1.0 3.0 0.00 0.00 0.00 91 1018.4
20260502021545 56 76 0.0 0.0 0.00 0.00 0.00 90 1018.4
20260502021029 56 300 0.0 0.0 0.00 0.00 0.00 90 1018.4
20260502020537 57 300 0.0 0.0 0.00 0.00 0.00 90 1018.4
20260502020052 57 300 0.0 0.0 0.00 0.00 0.00 92 1018.5
20260502015538 57 300 0.0 1.0 0.00 0.00 0.00 92 1018.5
20260502015037 57 300 0.0 1.0 0.00 0.00 0.00 92 1018.5
20260502014546 57 294 1.0 1.0 0.00 0.00 0.00 92 1018.5
20260502014030 57 228 0.0 1.0 0.00 0.00 0.00 93 1018.6
20260502013530 57 228 0.0 1.0 0.00 0.00 0.00 93 1018.6
20260502013037 56 230 0.0 1.0 0.00 0.00 0.00 92 1018.6
20260502012542 56 154 0.0 0.0 0.00 0.00 0.00 92 1018.6
20260502012048 56 148 0.0 0.0 0.00 0.00 0.00 93 1018.6
20260502011558 56 148 0.0 0.0 0.00 0.00 0.00 92 1018.6
20260502011108 56 148 0.0 0.0 0.00 0.00 0.00 91 1018.7
20260502010534 56 134 0.0 0.0 0.00 0.00 0.00 91 1018.7
20260502010046 56 134 0.0 0.0 0.00 0.00 0.00 90 1018.7
20260502005532 56 134 0.0 0.0 0.00 0.00 0.00 90 1018.8
20260502005032 57 134 0.0 0.0 0.00 0.00 0.00 90 1018.8
20260502004534 57 134 0.0 1.0 0.00 0.00 0.00 90 1018.8
20260502004056 57 134 0.0 1.0 0.00 0.00 0.00 90 1018.8
20260502003540 57 134 0.0 1.0 0.00 0.00 0.00 89 1018.9
20260502003107 57 126 0.0 2.0 0.00 0.00 0.00 89 1018.9
20260502002552 57 126 1.0 2.0 0.00 0.00 0.00 87 1019.0
20260502002038 57 145 0.0 1.0 0.00 0.00 0.00 88 1019.1
20260502001526 58 146 0.0 0.0 0.00 0.00 0.00 87 1019.1
20260502001033 58 146 0.0 0.0 0.00 0.00 0.00 88 1019.1
20260502000537 58 146 0.0 0.0 0.00 0.00 0.00 88 1019.1
20260502000046 59 146 0.0 0.0 0.00 0.00 0.00 88 1019.1
20260501235548 59 146 0.0 0.0 0.00 0.00 0.00 88 1019.1
20260501235047 59 146 0.0 2.0 0.00 0.00 0.00 88 1019.1
20260501234538 59 146 0.0 2.0 0.00 0.00 0.00 88 1019.1
20260501234101 60 146 0.0 4.0 0.00 0.00 0.00 88 1019.2
20260501233555 60 139 1.0 4.0 0.00 0.00 0.00 87 1019.2
20260501233030 60 134 2.0 3.0 0.00 0.00 0.00 87 1019.1
20260501232539 60 134 0.0 3.0 0.00 0.00 0.00 87 1019.2
20260501232039 60 134 2.0 3.0 0.00 0.00 0.00 86 1019.1
20260501231544 61 105 2.0 3.0 0.00 0.00 0.00 87 1019.2
20260501231042 61 179 1.0 2.0 0.00 0.00 0.00 86 1019.3
20260501230543 61 222 0.0 0.0 0.00 0.00 0.00 86 1019.3
20260501230033 61 222 0.0 0.0 0.00 0.00 0.00 86 1019.2
20260501225539 61 222 0.0 0.0 0.00 0.00 0.00 86 1019.2
20260501225032 61 222 0.0 0.0 0.00 0.00 0.00 85 1019.2
20260501224537 61 222 0.0 1.0 0.00 0.00 0.00 85 1019.1
20260501224044 61 222 0.0 0.0 0.00 0.00 0.00 84 1019.2
20260501223533 61 222 0.0 0.0 0.00 0.00 0.00 84 1019.2
20260501223042 62 222 0.0 0.0 0.00 0.00 0.00 83 1019.2
20260501222533 62 222 0.0 0.0 0.00 0.00 0.00 83 1019.1
20260501222029 62 222 0.0 1.0 0.00 0.00 0.00 83 1019.2
20260501221548 62 222 0.0 1.0 0.00 0.00 0.00 83 1019.2
20260501221052 63 210 0.0 0.0 0.00 0.00 0.00 83 1019.2
20260501220538 63 210 0.0 0.0 0.00 0.00 0.00 82 1019.3
20260501220037 63 210 0.0 0.0 0.00 0.00 0.00 82 1019.4
20260501215545 63 210 0.0 0.0 0.00 0.00 0.00 82 1019.4
20260501215043 63 210 0.0 0.0 0.00 0.00 0.00 81 1019.3
20260501214533 63 210 0.0 0.0 0.00 0.00 0.00 81 1019.3
20260501214055 64 210 0.0 1.0 0.00 0.00 0.00 80 1019.4
20260501213543 64 210 0.0 1.0 0.00 0.00 0.00 80 1019.4
20260501213046 64 210 0.0 1.0 0.00 0.00 0.00 80 1019.4
20260501212536 64 210 0.0 0.0 0.00 0.00 0.00 80 1019.4
20260501212037 64 210 0.0 1.0 0.00 0.00 0.00 79 1019.4
20260501211542 64 210 0.0 2.0 0.00 0.00 0.00 79 1019.5
20260501211046 65 195 1.0 2.0 0.00 0.00 0.00 79 1019.4
20260501210558 65 247 0.0 1.0 0.00 0.00 0.00 79 1019.4
20260501210040 65 224 0.0 5.0 0.00 0.00 0.00 78 1019.5
20260501205545 65 170 0.0 5.0 0.00 0.00 0.00 77 1019.5
20260501205053 66 188 0.0 2.0 0.00 0.00 0.00 77 1019.4
20260501204603 66 196 1.0 3.0 0.00 0.00 0.00 77 1019.4
20260501204044 66 238 1.0 3.0 0.00 0.00 0.00 77 1019.4
20260501203537 66 240 0.0 2.0 0.00 0.00 0.00 76 1019.4
20260501203043 66 258 0.0 2.0 0.00 0.00 0.00 75 1019.3
20260501202532 66 303 0.0 2.0 0.00 0.00 0.00 75 1019.3
20260501202030 67 306 0.0 1.0 0.00 0.00 0.00 74 1019.1
20260501201536 67 306 0.0 4.0 0.00 0.00 0.00 74 1019.0
20260501201051 67 248 1.0 4.0 0.00 0.00 0.00 74 1019.1
20260501200530 67 247 1.0 4.0 0.00 0.00 0.00 73 1019.2
20260501200046 67 223 3.0 4.0 0.00 0.00 0.00 73 1019.2
20260501195531 67 223 1.0 4.0 0.00 0.00 0.00 74 1019.1
20260501195036 67 211 1.0 3.0 0.00 0.00 0.00 73 1019.1
20260501194608 67 226 1.0 3.0 0.00 0.00 0.00 73 1019.0
20260501194045 67 236 1.0 2.0 0.00 0.00 0.00 73 1019.0
20260501193552 67 210 1.0 3.0 0.00 0.00 0.00 71 1019.0
20260501193030 68 207 1.0 3.0 0.00 0.00 0.00 70 1018.9
20260501192536 68 211 1.0 2.0 0.00 0.00 0.00 70 1018.8
20260501192036 68 201 1.0 3.0 0.00 0.00 0.00 69 1018.7
20260501191554 69 197 1.0 3.0 0.00 0.00 0.00 68 1018.8
20260501191033 69 200 1.0 9.0 0.00 0.00 0.00 67 1018.8
20260501190544 69 211 3.0 9.0 0.00 0.00 0.00 66 1018.8
20260501190045 70 182 1.0 3.0 0.00 0.00 0.00 66 1018.7
20260501185530 70 194 1.0 3.0 0.00 0.00 0.00 65 1018.7
20260501185030 70 194 1.0 3.0 0.00 0.00 0.00 65 1018.7
20260501184537 70 182 0.0 2.0 0.00 0.00 0.00 64 1018.7
20260501184036 71 186 1.0 2.0 0.00 0.00 0.00 64 1018.7
20260501183605 71 194 1.0 4.0 0.00 0.00 0.00 63 1018.7
20260501183106 71 198 1.0 4.0 0.00 0.00 0.00 63 1018.8
20260501182555 71 201 1.0 2.0 0.00 0.00 0.00 63 1018.7
20260501182035 72 194 0.0 2.0 0.00 0.00 0.00 62 1018.7
20260501181601 72 205 1.0 3.0 0.00 0.00 0.00 62 1018.6
20260501181039 72 177 1.0 3.0 0.00 0.00 0.00 62 1018.6
20260501180544 72 196 1.0 3.0 0.00 0.00 0.00 62 1018.6
20260501180116 72 200 1.0 3.0 0.00 0.00 0.00 61 1018.5
20260501175530 73 188 1.0 4.0 0.00 0.00 0.00 61 1018.5
20260501175031 73 213 2.0 5.0 0.00 0.00 0.00 61 1018.5
20260501174529 73 209 2.0 5.0 0.00 0.00 0.00 60 1018.4
20260501174035 73 211 1.0 6.0 0.00 0.00 0.00 60 1018.4
20260501173602 74 241 2.0 6.0 0.00 0.00 0.00 59 1018.2
20260501173029 74 218 2.0 6.0 0.00 0.00 0.00 59 1018.1
20260501172554 74 220 2.0 6.0 0.00 0.00 0.00 60 1018.1
20260501172037 75 196 3.0 6.0 0.00 0.00 0.00 59 1018.1
20260501171556 74 173 1.0 6.0 0.00 0.00 0.00 59 1018.0
20260501171039 75 193 3.0 6.0 0.00 0.00 0.00 58 1018.1
20260501170545 75 200 2.0 5.0 0.00 0.00 0.00 57 1017.9
20260501170041 75 211 1.0 6.0 0.00 0.00 0.00 55 1017.9
20260501165532 76 217 2.0 6.0 0.00 0.00 0.00 55 1017.9